Wisconsin Rapids, WI

10:45 PM CST on November 24, 2017 (GMT -0600)
Alexander Field South Wood County

Weather History for KISW - January, 2014

Change the Weather History Date:

Monday, January 27, 2014

  Actual Average Record
Temperature  
Mean Temperature -9 °F -  
Max Temperature -2 °F 22 °F 53 °F (2006)
Min Temperature -16 °F 2 °F -20 °F (1955)
Degree Days  
Heating Degree Days 74    
Moisture  
Dew Point -20 °F    
Average Humidity 61    
Maximum Humidity 71    
Minimum Humidity 53    
Precipitation  
Precipitation 0.00 in - - ()
Sea Level Pressure  
Sea Level Pressure 30.24 in    
Wind  
Wind Speed 15 mph (WNW)    
Max Wind Speed 22 mph    
Max Gust Speed 31 mph    
Visibility 8 miles    
Events      
Averages and records for this station are not official NWS values.
T = Trace of Precipitation, MM = Missing Value Source: NWS Daily Summary

Daily Weather History Graph

Daily Weather History Graph

Search for Another Location

Airport or City:

Trip Planner

Search our weather history database for the weather conditions in past years. The results will help you decide how hot, cold, wet, or windy it might be!

Date:

Astronomy

Jan. 27, 2014 Rise Set
Actual Time 7:22 AM CST 5:01 PM CST
Civil Twilight 6:51 AM CST 5:33 PM CST
Nautical Twilight 6:16 AM CST 6:08 PM CST
Astronomical Twilight 5:42 AM CST 6:42 PM CST
Moon 4:05 AM CST (1/27) 1:46 PM CST (1/27)
Length of Visible Light 10h 41m
Length of Day
9h 39m
Waning Crescent, 14% of the Moon is Illuminated
Jan 27
Waning Crescent
Jan 30
New
Feb 6
First Quarter
Feb 14
Full
Feb 22
Last Quarter

Hourly Weather History & Observations

Time (CST) Temp. Windchill Dew Point Humidity Pressure Visibility Wind Dir Wind Speed Gust Speed Precip Events Conditions
12:54 AM -2.0 °F -24.4 °F -11.9 °F 63% 29.94 in 8.0 mi NW 19.6 mph 26.5 mph 0.00 in   Clear
1:54 AM -2.9 °F -22.4 °F -11.9 °F 65% 29.98 in 9.0 mi WNW 13.8 mph 24.2 mph 0.00 in   Mostly Cloudy
2:18 AM -4.0 °F -24.5 °F -13.0 °F 65% 29.93 in 8.0 mi WNW 15.0 mph 25.3 mph 0.00 in   Scattered Clouds
2:54 AM -5.1 °F -23.5 °F -14.1 °F 65% 30.02 in 10.0 mi WNW 11.5 mph - 0.00 in   Clear
3:54 AM -6.0 °F -27.7 °F -16.1 °F 62% 30.06 in 10.0 mi WNW 16.1 mph 23.0 mph N/A   Clear
4:27 AM -7.1 °F -31.0 °F -15.0 °F 68% 30.00 in 7.0 mi WNW 19.6 mph 27.6 mph N/A   Mostly Cloudy
4:54 AM -8.0 °F -28.8 °F -16.1 °F 68% 30.09 in 7.0 mi WNW 13.8 mph 26.5 mph N/A   Mostly Cloudy
5:14 AM -9.0 °F -31.7 °F -17.0 °F 68% 30.02 in 9.0 mi WNW 16.1 mph 27.6 mph N/A   Partly Cloudy
5:54 AM -9.9 °F -32.8 °F -20.0 °F 61% 30.13 in 7.0 mi WNW 16.1 mph 29.9 mph 0.00 in   Clear
6:54 AM -11.9 °F -36.1 °F -22.0 °F 61% 30.18 in 9.0 mi WNW 17.3 mph - 0.00 in   Clear
7:54 AM -14.1 °F -39.6 °F -23.1 °F 64% 30.23 in 9.0 mi WNW 18.4 mph - N/A   Clear
8:54 AM -14.1 °F -35.7 °F -24.0 °F 61% 30.28 in 10.0 mi WNW 12.7 mph - N/A   Clear
9:54 AM -13.0 °F -37.5 °F -24.0 °F 58% 30.30 in 8.0 mi WNW 17.3 mph 25.3 mph 0.00 in   Clear
10:54 AM -11.9 °F -35.4 °F -24.0 °F 55% 30.32 in 6.0 mi WNW 16.1 mph 31.1 mph 0.00 in   Clear
11:54 AM -11.0 °F -37.4 °F -23.1 °F 55% 30.32 in 6.0 mi West 21.9 mph 27.6 mph 0.00 in   Clear
12:54 PM -9.0 °F -33.0 °F -22.0 °F 53% 30.32 in 8.0 mi WNW 18.4 mph 25.3 mph 0.00 in   Clear
1:54 PM -9.0 °F -32.4 °F -22.0 °F 53% 30.32 in 6.0 mi WNW 17.3 mph 24.2 mph 0.00 in   Clear
2:54 PM -8.0 °F -32.2 °F -20.9 °F 53% 30.33 in 4.0 mi WNW 19.6 mph 29.9 mph 0.00 in   Clear
3:54 PM -8.0 °F -30.3 °F -20.9 °F 53% 30.35 in 9.0 mi West 16.1 mph 23.0 mph 0.00 in   Clear
4:54 PM -9.0 °F -27.4 °F -22.0 °F 53% 30.38 in 10.0 mi West 10.4 mph 20.7 mph 0.00 in   Clear
5:54 PM -11.0 °F -26.2 °F -22.0 °F 58% 30.40 in 10.0 mi West 6.9 mph - N/A   Clear
6:54 PM -11.9 °F -28.7 °F -23.1 °F 58% 30.41 in 10.0 mi West 8.1 mph - N/A   Clear
7:54 PM -11.9 °F -29.9 °F -22.0 °F 61% 30.42 in 10.0 mi West 9.2 mph - N/A   Clear
8:54 PM -14.1 °F -31.3 °F -23.1 °F 64% 30.42 in 10.0 mi West 8.1 mph - N/A   Clear
9:54 PM -14.1 °F -29.9 °F -23.1 °F 64% 30.43 in 10.0 mi WSW 6.9 mph - N/A   Clear
10:54 PM -16.1 °F -32.3 °F -23.1 °F 71% 30.42 in 10.0 mi WSW 6.9 mph - N/A   Clear
11:54 PM -16.1 °F -32.3 °F -23.1 °F 71% 30.41 in 10.0 mi West 6.9 mph - N/A   Clear